• Processing (Info)

  • MPEC 2006-B49 : 2006 BL8

    The following Minor Planet Electronic Circular may be linked-to from your own Web pages, but must not otherwise be redistributed electronically.

    A form allowing access to any MPEC is at the bottom of this page.


    Read MPEC 2006-B48 Read MPEC 2006-B50


    M.P.E.C. 2006-B49                                Issued 2006 Jan. 24, 21:07 UT
    
         The Minor Planet Electronic Circulars contain information on unusual
             minor planets and routine data on comets.  They are published
       on behalf of Commission 20 of the International Astronomical Union by the
              Minor Planet Center, Smithsonian Astrophysical Observatory,
                              Cambridge, MA 02138, U.S.A.
    
                      Supported in part by the Brinson Foundation
                      Supported in part by the TABASGO Foundation
                 Prepared using the Tamkin Foundation Computer Network
    
                                  MPC@CFA.HARVARD.EDU
              URL http://cfa-www.harvard.edu/iau/mpc.html  ISSN 1523-6714
    
                                       2006 BL8
    
    Observations:
         K06B08L* C2006 01 24.27116 07 52 00.37 +34 54 10.6          19.1 V EB049703
         K06B08L  C2006 01 24.27543 07 51 58.50 +34 56 01.4          18.6 V EB049703
         K06B08L  C2006 01 24.27972 07 51 56.55 +34 57 52.9          18.8 V EB049703
         K06B08L  C2006 01 24.28405 07 51 54.64 +34 59 46.1          18.2 V EB049703
         K06B08L  C2006 01 24.33262 07 51 32.55 +35 20 50.2          18.2 V EB049703
         K06B08L  C2006 01 24.33383 07 51 31.92 +35 21 20.9          18.7 V EB049703
         K06B08L  C2006 01 24.75112 07 49 05.90 +38 29 05.7          18.5 V EB049198
         K06B08L  C2006 01 24.75474 07 49 04.27 +38 30 50.6          18.4 V EB049198
         K06B08L  C2006 01 24.75706 07 49 03.22 +38 31 58.2          18.4 V EB049198
         K06B08L  C2006 01 24.82594307 48 31.59 +39 05 02.2                 EB049J95
         K06B08L  C2006 01 24.83195007 48 28.74 +39 07 58.6                 EB049J95
         K06B08L  C2006 01 24.84204707 48 23.74 +39 12 54.7                 EB049J95
         K06B08L  C2006 01 24.84781707 48 20.95 +39 15 44.4          19.0 R EB049J95
    
    Observer details:
    198 Wildberg.  Observer R. Apitzsch.  0.35-m f/4.2 reflector + CCD.
    703 Catalina Sky Survey.  Observer R. A. Kowalski.  Measurers E. C. Beshore,
        E. J. Christensen, G. J. Garradd, A. D. Grauer, R. E. Hill, R. A. Kowalski,
        S. M. Larson, R. H. McNaught.  0.68-m Schmidt + CCD.
    J95 Great Shefford.  Observer P. Birtwhistle.  0.40-m f/6.0 Schmidt-Cassegrain
        + CCD.
    
    Orbital elements:
    2006 BL8                                                 Earth MOID = 0.0031 AU
    Epoch 2006 Mar. 6.0 TT = JDT 2453800.5                  MPC
    M 337.78141              (2000.0)            P               Q
    n   0.82666450     Peri.   92.18083     -0.81498647     +0.55028980
    a   1.1243888      Node   121.25703     -0.57914445     -0.76282195
    e   0.3002440      Incl.   12.26504     -0.01971710     -0.33953470
    P   1.19           H   24.7           G   0.15           U   8
    Residuals in seconds of arc
    060124 703  0.5-  0.1+    060124 703  0.4-  0.4-    060124 J95  0.6+  0.0
    060124 703  0.1+  0.2-    060124 198  0.2+  0.1+    060124 J95  0.6-  0.1-
    060124 703  0.1-  0.2-    060124 198  0.0   0.1+    060124 J95  0.1-  0.2+
    060124 703  0.4+  0.4+    060124 198  0.2-  0.4+
    060124 703  0.5+  0.4+    060124 J95  0.1+  0.3-
    
    Ephemeris:
    2006 BL8                 a,e,i = 1.12, 0.30, 12                  q = 0.7868
    Date    TT    R. A. (2000) Decl.     Delta      r     Elong.  Phase     V
    2006 01 25    07 47.04   +40 31.1    0.0363   1.018   156.8    22.4    18.6
    2006 01 26    07 37.07   +49 30.3    0.0333   1.013   147.3    31.6    18.7
    2006 01 27    07 19.71   +59 47.0    0.0314   1.008   136.5    42.3    18.8
    2006 01 28    06 42.74   +70 38.0    0.0306   1.003   124.8    53.8    19.1
    2006 01 29    04 50.31   +80 04.2    0.0311   0.998   113.0    65.4    19.5
    2006 01 30    00 12.27   +81 04.2    0.0328   0.992   102.0    76.1    19.9
    2006 01 31    22 07.64   +74 09.1    0.0355   0.987    92.4    85.5    20.4
    2006 02 01    21 27.89   +66 58.6    0.0391   0.982    84.4    93.3    20.9
    2006 02 02    21 09.62   +60 48.7    0.0432   0.977    77.8    99.8    21.4
    2006 02 03    20 59.25   +55 40.9    0.0477   0.972    72.3   105.0    21.9
    2006 02 04    20 52.58   +51 25.6    0.0526   0.967    67.9   109.2    22.4
    
    Timothy B. Spahr             (C) Copyright 2006 MPC           M.P.E.C. 2006-B49
    

    Read MPEC 2006-B48 Read MPEC 2006-B50


    MPEC number:

    Enter an MPEC number in one of the following forms:

    • 1997-B01 (the full form)
    • J97B01 (the packed version of the full form)
    • B01 (the abbreviated form)